Location: Unspecified
(47.9110°N, 14.3980°E)
Time: 16:18:39
(UTC+00:00)

Meteor 1-21 - Pass Details

Date: 06 August 2020
Orbit: 844 x 888 km, 81.2° (Epoch: 18 September)

Event Time Altitude Azimuth Distance (km) Brightness Sun altitude
Rises 23:31:14 0° 348° (NNW) 3,508 8.6 -25.5°
Reaches altitude 10° 23:33:42 10° 348° (NNW) 2,562 7.6 -25.5°
Maximum altitude 23:39:33 90° 270° (W) 890 4.2 -25.4°
Enters shadow 23:40:27 66° 170° (S) 962 4.2 -25.3°
